Showing default

LEMUR 2 MARHISYAM, 60536

Orbit data source: Space-Track

LEMUR 2 MARHISYAM, 60536 is a payload satellite owned by Spire (US) in SSO that was launched on Fri, 16 Aug 2024 UTC via an FALCON 9 launch vehicle from the Air Force Western Test Range (AFWTR). Payload-class satellites include a variety of spacecraft equipped with specific instruments for various scientific and technological missions. These include communications satellites like Starlink; space stations such as the ISS; scientific satellites like the Hubble; Earth observation satellites from companies like Planet Labs, Umbra, and HawkEye 360; GPS; miniature CubeSats for education and research; and military/defense satellites.

Loading next visibility...
Identifier
60536, 2024-149BW
Orbit
SSO
Country
Flag of USUS
Related business
Manufacturer
Spire/Glasgow
Mission
Operational Commercial Com/MetRO
Bus & Motor
CUBESAT 3U, Unknown motor
Mass
7.6 kg wet, 7.6 kg dry
Launch date (UTC)
2024-08-16 (1 year ago)
Launch vehicle
FALCON 9
Launch site
Air Force Western Test Range (AFWTR)
Object type
Payload
Rocket body
Debris
Shape & HBR
Box + 2 Pan, 0.5 m
Radar Cross Section
0.063 m², Small (<0.1 m²)

Expand to show TLE details & history
Last TLE update: 9 hours ago

TLE from 9 hours ago
0 LEMUR 2 MARHISYAM
1 60536U 24149BW  26035.17683861  .00015038  00000-0  97818-3 0  9999
2 60536  97.6967 117.6366 0002089 193.7768 166.3403 15.08077363 80412
Epoch: 2026-02-04T04:14Z
TLE epoch observation values (Epoch: 2026-02-04T04:14:38.855Z)
Latitude
-0.00006°
Longitude
-80.37246°
Altitude
546.546 km
Speed
7.588 km/s
True Right ascension
07h 50m 32s
True Declination
0° 00' 00"
Sunlit
Object was in full shadow at epoch
Visualization orbit readout
Latitude
Unknown
Longitude
Unknown
Altitude
Unknown
Speed
Unknown
Apparent Right ascension
Unknown
Apparent Declination
Unknown
Sunlit
N/A
Visualization observer readout
Local Sidereal Time
15:37:14
Azimuth
Unknown
Elevation
Unknown
Doppler factor
Unknown
Orbital elements
Apogee altitude
540.515 km
Perigee altitude
537.625 km
Semi-major axis
6,917.207 km
Eccentricity
0.00021
Inclination
97.6967°
RAAN
117.6366°
Arg. of periapsis
193.7768°
True anomaly
166.34595°
Mean anomaly
166.3403°
Eccentric anomaly
166.34313°
Mean motion
3.77265 °/min
Orbital period
95.42 mins
BSTAR
0.00097818
Loading maneuver chart data...
Computing Atmospheric mass density...
Loading historical data...
Loading historical data...
Loading historical data...
Loading historical data...
Loading historical data...
Loading historical data...
Loading historical data...

Documentation

Showing up to 5 results
|